Tracking 32139 objects as of 15-Nov-2025
HD Live streaming from Space Station
objects crossing your sky now

STARLINK-35290

Track STARLINK-35290 now!
10-day predictions
STARLINK-35290 is classified as:


NORAD ID: 65846
Int'l Code: 2025-221Z
Perigee: 481.3 km
Apogee: 483.0 km
Inclination: 53.2 °
Period: 94.1 minutes
Semi major axis: 6853 km
RCS: Unknown
Launch date: September 29, 2025
Source: United States (US)
Launch site: AIR FORCE WESTERN TEST RANGE (AFWTR)
Your satellite tracking list
Your tracking list is empty




NASA's NSSDC Master Catalog

Two Line Element Set (TLE):
1 65846U 25221Z   25318.85733640  .00045726  00000-0  15439-2 0  9994
2 65846  53.1595 261.6101 0001239 102.0558 258.0581 15.30254659  7154
Source of the keplerian elements: AFSPC